TimeCST,TemperatureF,Dew PointF,Humidity,Sea Level PressureIn,VisibilityMPH,Wind Direction,Wind SpeedMPH,Gust SpeedMPH,PrecipitationIn,Events,Conditions,WindDirDegrees,DateUTC
12:39 AM,33.8,30.2,87,29.97,2.0,North,11.5,-,0.00,Snow,Light Snow,360,2013-02-25 06:39:00
12:51 AM,33.8,30.2,87,29.96,1.2,North,11.5,-,0.00,Snow,Light Snow,10,2013-02-25 06:51:00
12:53 AM,33.1,30.9,92,29.98,1.2,North,12.7,-,0.00,,Overcast,10,2013-02-25 06:53:00
1:05 AM,33.8,30.2,87,29.94,1.0,North,12.7,-,N/A,,Overcast,10,2013-02-25 07:05:00
1:25 AM,33.8,30.2,87,29.96,1.8,North,11.5,-,0.01,,Overcast,10,2013-02-25 07:25:00
1:53 AM,33.1,30.9,92,29.98,1.8,North,15.0,-,0.01,,Overcast,360,2013-02-25 07:53:00
2:02 AM,33.8,30.2,87,29.96,2.0,North,15.0,-,N/A,,Overcast,360,2013-02-25 08:02:00
2:26 AM,33.8,30.2,87,29.94,1.5,NNE,11.5,-,N/A,,Overcast,20,2013-02-25 08:26:00
2:53 AM,33.1,30.9,92,29.97,1.8,NNE,10.4,-,0.01,,Overcast,20,2013-02-25 08:53:00
3:53 AM,33.1,30.9,92,29.98,1.0,North,11.5,-,0.01,,Overcast,10,2013-02-25 09:53:00
4:53 AM,33.1,30.0,89,29.97,1.8,NNE,15.0,-,0.01,,Overcast,20,2013-02-25 10:53:00
5:53 AM,33.1,30.0,89,29.97,1.5,NNE,16.1,-,0.01,,Overcast,20,2013-02-25 11:53:00
6:53 AM,33.1,30.0,89,29.97,2.0,NNE,16.1,-,N/A,,Overcast,20,2013-02-25 12:53:00
7:09 AM,33.8,30.2,87,29.95,1.8,NNE,15.0,24.2,0.00,Snow,Snow,20,2013-02-25 13:09:00
7:53 AM,33.1,28.9,85,29.97,1.8,North,17.3,21.9,0.01,,Overcast,10,2013-02-25 13:53:00
8:07 AM,33.8,28.4,81,29.94,2.5,NNE,16.1,-,0.00,Rain,Light Rain,20,2013-02-25 14:07:00
8:17 AM,33.8,28.4,81,29.95,3.0,North,16.1,-,0.00,Rain,Light Rain,10,2013-02-25 14:17:00
8:53 AM,33.1,28.9,85,29.99,4.0,NNE,15.0,-,0.00,,Overcast,20,2013-02-25 14:53:00
9:53 AM,34.0,28.9,82,29.98,4.0,NNE,17.3,-,0.01,,Haze,20,2013-02-25 15:53:00
10:53 AM,35.1,28.9,78,29.95,5.0,North,19.6,31.1,0.05,Snow,Light Snow,10,2013-02-25 16:53:00
11:53 AM,35.1,30.0,82,29.96,5.0,NNE,16.1,28.8,0.10,Snow,Light Snow,30,2013-02-25 17:53:00
12:53 PM,36.0,30.0,79,29.94,6.0,NNE,17.3,-,0.01,,Haze,30,2013-02-25 18:53:00
1:34 PM,35.6,28.4,75,29.90,5.0,NNE,13.8,21.9,0.00,,Haze,30,2013-02-25 19:34:00
1:53 PM,36.0,28.9,76,29.93,5.0,NNE,19.6,25.3,0.00,Snow,Light Snow,20,2013-02-25 19:53:00
2:53 PM,36.0,30.0,79,29.90,5.0,NNE,17.3,23.0,0.00,Snow,Light Snow,20,2013-02-25 20:53:00
3:38 PM,35.6,28.4,75,29.86,2.0,NNE,16.1,24.2,0.00,Snow,Light Snow,20,2013-02-25 21:38:00
3:46 PM,35.6,28.4,75,29.86,1.5,NNE,17.3,-,0.00,Snow,Light Snow,20,2013-02-25 21:46:00
3:53 PM,35.1,28.9,78,29.88,1.8,North,20.7,25.3,0.00,Snow,Light Snow,10,2013-02-25 21:53:00
4:53 PM,35.1,28.9,78,29.86,1.8,North,20.7,-,0.00,Snow,Light Snow,360,2013-02-25 22:53:00
4:56 PM,35.6,28.4,75,29.82,4.0,North,23.0,-,0.00,Snow,Light Snow,360,2013-02-25 22:56:00
5:53 PM,35.1,28.0,76,29.84,5.0,North,25.3,-,0.00,Snow,Light Snow,360,2013-02-25 23:53:00
5:57 PM,35.6,28.4,75,29.81,5.0,North,24.2,-,0.00,Snow,Light Snow,10,2013-02-25 23:57:00
6:53 PM,34.0,27.0,75,29.84,7.0,North,20.7,31.1,0.00,Snow,Light Snow,10,2013-02-26 00:53:00
7:53 PM,34.0,27.0,75,29.82,6.0,North,20.7,-,0.00,Snow,Light Snow,10,2013-02-26 01:53:00
8:53 PM,34.0,27.0,75,29.87,6.0,North,18.4,-,0.00,Snow,Light Snow,360,2013-02-26 02:53:00
9:53 PM,33.1,27.0,78,29.88,4.0,North,16.1,-,0.00,Snow,Light Snow,360,2013-02-26 03:53:00
10:15 PM,33.8,26.6,75,29.86,2.5,North,15.0,-,0.00,Snow,Light Snow,360,2013-02-26 04:15:00
10:53 PM,32.0,27.0,82,29.88,2.5,NNW,16.1,-,0.00,Snow,Light Snow,340,2013-02-26 04:53:00
11:00 PM,32.0,26.6,80,29.85,4.0,NNW,17.3,-,0.00,Snow,Light Snow,340,2013-02-26 05:00:00
11:53 PM,32.0,26.1,79,29.86,5.0,NNW,16.1,-,0.00,Snow,Light Snow,340,2013-02-26 05:53:00